This is the latest recevied weather packets stored in our database for station/object WP4PW. If no packets are shown the sender has not sent any weather packets the latest 10 day(s).
| Time | Temp. | Humidity | Pressure | Rain* | Wind** | Luminosity | Snow |
|---|---|---|---|---|---|---|---|
| 1777808241 | 27.78° C | 83% | 1021.5 hPa | 0 mm | - | 143 W/m² | - |
| 1777807940 | 27.78° C | 83% | 1021.6 hPa | 0 mm | - | 176 W/m² | - |
| 1777807637 | 27.78° C | 82% | 1021.5 hPa | 0 mm | - | 132 W/m² | - |
| 1777807335 | 27.78° C | 84% | 1021.6 hPa | 0 mm | - | 177 W/m² | - |
| 1777807030 | 27.78° C | 83% | 1021.4 hPa | 0 mm | - | 87 W/m² | - |
| 1777806727 | 27.78° C | 83% | 1021.4 hPa | 0 mm | - | 138 W/m² | - |
| 1777806423 | 27.78° C | 84% | 1021.3 hPa | 0 mm | - | 131 W/m² | - |
| 1777806120 | 27.78° C | 83% | 1021.1 hPa | 0 mm | - | 129 W/m² | - |
| 1777805816 | 27.22° C | 85% | 1021.3 hPa | 0 mm | - | 125 W/m² | - |
| 1777805514 | 27.22° C | 85% | 1021.1 hPa | 0 mm | - | 99 W/m² | - |
| 1777805212 | 27.78° C | 84% | 1021.2 hPa | 0 mm | - | 66 W/m² | - |
| 1777804909 | 27.22° C | 84% | 1021.2 hPa | 0 mm | - | 75 W/m² | - |
| 1777804607 | 27.22° C | 85% | 1021 hPa | 0 mm | - | 66 W/m² | - |
| 1777804305 | 26.67° C | 86% | 1021.1 hPa | 0 mm | - | 52 W/m² | - |
| 1777804001 | 26.67° C | 85% | 1020.9 hPa | 0 mm | - | 43 W/m² | - |
| 1777803698 | 26.67° C | 86% | 1020.8 hPa | 0 mm | - | 26 W/m² | - |
| 1777803393 | 26.11° C | 87% | 1020.8 hPa | 0 mm | - | 21 W/m² | - |
| 1777803092 | 26.11° C | 86% | 1020.9 hPa | 0 mm | - | 17 W/m² | - |
| 1777802789 | 26.11° C | 86% | 1020.6 hPa | 0 mm | - | 11 W/m² | - |
| 1777802487 | 26.11° C | 86% | 1020.9 hPa | 0 mm | - | 8 W/m² | - |
| 1777802184 | 26.11° C | 87% | 1020.7 hPa | 0 mm | - | 4 W/m² | - |
| 1777801882 | 26.11° C | 87% | 1020.7 hPa | 0 mm | - | 2 W/m² | - |
| 1777801578 | 26.11° C | 87% | 1020.7 hPa | 0 mm | - | 1 W/m² | - |
| 1777801276 | 26.11° C | 87% | 1020.5 hPa | 0 mm | - | 0 W/m² | - |
| 1777800972 | 26.11° C | 86% | 1020.8 hPa | 0 mm | - | 0 W/m² | - |
* Rain latest hour (hover to see other rain measurements)
** Current wind speed in m/s (hover to see current wind gust speed)